[[{"header":{"parameterUnit":"m.s-1","parameterCategory":1,"la1":30.2991,"la2":30.254,"lo1":-89.0895,"lo2":-89.0444,"dy":0.0017,"dx":0.0017,"nx":28,"ny":28,"refTime":"2023-10-29T09:00:00:Z","depth":0,"parameterNumber":2,"parameterNumberName":"U-component_of_WINDS"},"data":[0,0,0,0,0,0,0,0,0,0,0,0,0,0,0,0,0,0,0,0,0,0,0,0,0,0,0,0,0,0,0,0,0,0,0,0,0,0,0,0,0,0,0,0,0,0,0,0,0,0,0,0,0,0,0,0,0,0,-3.0363,-3.0363,0,-3.0384,-3.0384,-3.0384,-3.0306,-3.0304,-3.0302,-3.0299,-3.0319,-3.0322,-3.0324,0,0,0,0,0,0,0,0,0,0,0,0,0,-3.0255,-3.0258,-3.0363,-3.0363,-3.0364,-3.0384,-3.0384,-3.0384,-3.0307,-3.0304,-3.0301,-3.0298,-3.0318,-3.0321,-3.0325,0,0,0,0,0,0,0,0,0,0,0,0,0,-3.0292,-3.0259,-3.0363,-3.0327,-3.0324,-3.0384,-3.0384,-3.0385,-3.0307,-3.0304,-3.03,-3.0297,-3.0317,-3.0321,-3.0325,-3.0419,0,0,-3.0337,-3.0339,0,0,0,0,0,0,0,0,-3.029,-3.0296,-3.0332,-3.033,-3.0327,-3.0339,-3.0353,-3.0396,-3.0308,-3.0314,-3.0299,-3.0295,-3.0328,-3.0331,-3.0343,-3.042,-3.0421,-3.0338,-3.034,-3.0342,-3.0343,0,0,0,0,0,0,0,-3.0287,-3.0295,-3.0371,-3.0333,-3.033,-3.031,-3.0311,-3.0361,-3.034,-3.0313,-3.0307,-3.0311,-3.0326,-3.0339,-3.0343,-3.0421,-3.0337,-3.0341,-3.0344,-3.0345,-3.0578,-3.0581,0,0,0,0,0,0,-3.029,-3.0293,-3.0371,-3.0372,-3.0299,-3.0315,-3.0316,-3.0339,-3.0339,-3.0336,-3.0314,-3.0307,-3.0334,-3.0338,-3.0343,-3.0453,-3.0342,-3.0345,-3.0348,-3.0574,-3.0578,-3.0582,0,0,0,0,0,0,-3.0288,-3.0298,-3.037,-3.0331,-3.0339,-3.032,-3.0346,-3.0341,-3.0353,-3.034,-3.0336,-3.0331,-3.0331,-3.0337,-3.0401,-3.0453,-3.0347,-3.0351,-3.0569,-3.0575,-3.058,-3.0674,0,0,0,0,0,0,-3.0285,-3.0297,-3.0333,-3.0332,-3.0341,-3.0428,-3.0349,-3.0344,-3.0361,-3.0352,-3.0355,-3.0352,-3.0329,-3.0395,-3.0405,-3.0456,-3.0354,-3.0565,-3.0572,-3.0579,-3.0666,-3.0682,-3.0696,0,0,0,0,0,-3.0281,-3.0358,-3.0335,-3.0345,-3.0385,-3.0431,-3.0436,-3.0408,-3.0365,-3.0401,-3.0393,-3.0352,-3.0446,-3.0403,-3.0413,-3.0466,-3.0561,-3.057,-3.0578,-3.066,-3.0679,-3.0696,0,0,0,0,0,0,-3.0364,-3.0357,-3.0332,-3.041,-3.0422,-3.0418,-3.0461,-3.043,-3.0453,-3.0444,-3.0408,-3.041,-3.048,-3.0479,-3.0431,-3.0557,-3.0496,-3.0507,-3.0555,-3.0573,-3.0588,-3.0585,-3.0357,0,0,0,0,0,-3.0392,-3.043,-3.0422,-3.0492,-3.0499,-3.048,-3.0499,-3.0477,-3.0487,-3.0491,-3.0487,-3.0499,-3.053,-3.0552,-3.0581,-3.0667,-3.0666,-3.0709,-3.0723,-3.0736,-3.0745,-3.079,-3.0809,-3.061,-3.061,-3.061,0,0,-3.0448,-3.0449,-3.0475,-3.0509,-3.0515,-3.0555,-3.0484,-3.0529,-3.0558,-3.0498,-3.0557,-3.0556,-3.0566,-3.0641,-3.0674,-3.0643,-3.08,-3.0746,-3.0756,-3.0759,-3.0801,-3.0819,-3.0836,-3.0616,-3.0615,-3.0614,0,0,-3.0572,-3.0577,-3.0636,-3.0644,-3.0655,-3.0642,-3.0657,-3.0658,-3.0655,-3.0714,-3.067,-3.0704,-3.076,-3.0769,-3.0781,-3.0911,-3.0874,-3.0921,-3.0998,-3.1042,-3.1058,-3.1072,-3.1117,-3.1134,-3.0931,-3.0931,-3.0931,0,-3.064,-3.0699,-3.067,-3.0718,-3.0734,-3.0683,-3.0742,-3.0752,-3.0771,-3.0783,-3.0749,-3.0818,-3.0822,-3.0898,-3.093,-3.0942,-3.0957,-3.0919,-3.1058,-3.1072,-3.1084,-3.1127,-3.1144,-3.0937,-3.0936,-3.0936,-3.0935,0,-3.0783,-3.0824,-3.0871,-3.0892,-3.0913,-3.0967,-3.0946,-3.0971,-3.0948,-3.0939,-3.1001,-3.1004,-3.1032,-3.1049,-3.1026,-3.1123,-3.1103,-3.1064,-3.1001,-3.1109,-3.1148,-3.1164,-3.0945,-3.0943,-3.0941,-3.094,0,0,-3.0955,-3.0962,-3.0979,-3.0988,-3.0998,-3.1029,-3.1081,-3.111,-3.1132,-3.1148,-3.119,-3.124,-3.1204,-3.1218,-3.1197,-3.1236,-3.1338,-3.1192,-3.1192,-3.1218,-3.1443,-3.1471,-3.149,-3.1315,-3.1318,-3.132,-3.1442,0,-3.1075,-3.1164,-3.1141,-3.1229,-3.1267,-3.122,-3.1265,-3.1276,-3.127,-3.1301,-3.1293,-3.1328,-3.1279,-3.1287,-3.1325,-3.1318,-3.1382,-3.1309,-3.1352,-3.1354,-3.1349,-3.1511,-3.154,-3.1655,-3.1457,-3.146,-3.1462,0,-3.1226,-3.125,-3.1342,-3.1346,-3.1361,-3.1402,-3.1427,-3.1458,-3.1469,-3.1462,-3.1479,-3.145,-3.1501,-3.144,-3.1509,-3.146,-3.1477,-3.1476,-3.148,-3.1481,-3.1413,-3.1515,-3.1691,-3.1707,-3.1486,-3.1484,-3.1482,0,-3.1341,-3.1396,-3.1458,-3.1468,-3.1475,-3.1505,-3.1509,-3.1517,-3.1536,-3.1558,-3.157,-3.1598,-3.1613,-3.1635,-3.1614,-3.1572,-3.1687,-3.1624,-3.1681,-3.1682,-3.1705,-3.1703,-3.1884,-3.172,-3.172,-3.1719,-3.1719,0,-3.1476,-3.1534,-3.151,-3.1548,-3.1612,-3.1585,-3.1649,-3.1648,-3.1656,-3.1693,-3.1655,-3.169,-3.1662,-3.1695,-3.1679,-3.1739,-3.1746,-3.1741,-3.1735,-3.1743,-3.1743,-3.1752,-3.1742,-3.1724,-3.1723,-3.1722,-3.1721,0,-3.1614,-3.16,-3.1665,-3.1667,-3.1669,-3.1716,-3.1718,-3.1753,-3.1745,-3.1792,-3.1802,-3.1789,-3.1825,-3.1808,-3.1846,-3.1836,-3.1912,-3.1897,-3.1908,-3.1904,-3.1961,-3.1955,-3.2151,-3.2175,-3.1998,-3.2,-3.2001,0,-3.17,-3.1744,-3.1751,-3.1774,-3.1781,-3.1818,-3.1837,-3.1814,-3.1836,-3.1853,-3.1886,-3.1921,-3.1946,-3.2007,-3.2001,-3.203,-3.2015,-3.2082,-3.2019,-3.2025,-3.2014,-3.201,-3.2014,-3.2093,-3.2095,-3.2097,-3.2099,0,-3.1853,-3.1845,-3.1875,-3.1904,-3.1929,-3.195,-3.1968,-3.1988,-3.1965,-3.1992,-3.203,-3.205,-3.209,-3.2124,-3.215,-3.2154,-3.2123,-3.2119,-3.2133,-3.214,-3.2144,-3.2141,-3.1941,-3.2114,-3.2112,-3.2111,-3.211,-3.211,-3.1966,-3.2003,-3.2014,-3.205,-3.2061,-3.2079,-3.2112,-3.2109,-3.2141,-3.2172,-3.2156,-3.22,-3.2212,-3.2244,-3.2253,-3.2287,-3.226,-3.2281,-3.2286,-3.2291,-3.2298,-3.2141,-3.2292,-3.2291,-3.2291,-3.229,-3.229,0,-3.2116,-3.2122,-3.2155,-3.2181,-3.221,-3.218,-3.2198,-3.2223,-3.2263,-3.2277,-3.2304,-3.2347,-3.2381,-3.2378,-3.2409,-3.2437,-3.2423,-3.2445,-3.2442,-3.2443,-3.2321,-3.2304,-3.2456,-3.2456,-3.2456,-3.2456,-3.2456,-3.2456,-3.2197,-3.2257,-3.2251,-3.2317,-3.2322,-3.2365,-3.2378,-3.2395,-3.2406,-3.2457,-3.2485,-3.2484,-3.2491,-3.2522,-3.2552,-3.255,-3.2562,-3.259,-3.2583,-3.2468,-3.2451,-3.2436,-3.242,-3.2593,-3.2594,-3.2702,-3.2703,-3.2703]},{"header":{"parameterUnit":"m.s-1","parameterCategory":1,"la1":30.2991,"la2":30.254,"lo1":-89.0895,"lo2":-89.0444,"dy":0.0017,"dx":0.0017,"nx":28,"ny":28,"refTime":"2023-10-29T09:00:00:Z","depth":0,"parameterNumber":3,"parameterNumberName":"V-component_of_WINDS"},"data":[0,0,0,0,0,0,0,0,0,0,0,0,0,0,0,0,0,0,0,0,0,0,0,0,0,0,0,0,0,0,0,0,0,0,0,0,0,0,0,0,0,0,0,0,0,0,0,0,0,0,0,0,0,0,0,0,0,0,0.5365,0.5366,0,0.5392,0.5392,0.5393,0.5351,0.5349,0.5348,0.5346,0.5376,0.5378,0.538,0,0,0,0,0,0,0,0,0,0,0,0,0,0.5283,0.5285,0.5365,0.5366,0.5366,0.5392,0.5392,0.5393,0.5351,0.5349,0.5347,0.5346,0.5375,0.5377,0.538,0,0,0,0,0,0,0,0,0,0,0,0,0,0.5315,0.5285,0.5365,0.5348,0.5347,0.5392,0.5392,0.5393,0.5351,0.5349,0.5347,0.5345,0.5374,0.5377,0.538,0.5444,0,0,0.539,0.5391,0,0,0,0,0,0,0,0,0.5313,0.5318,0.535,0.5349,0.5348,0.5366,0.5374,0.541,0.5352,0.535,0.5346,0.5344,0.5374,0.5377,0.5387,0.5445,0.5446,0.539,0.5392,0.5394,0.5395,0,0,0,0,0,0,0,0.5311,0.5317,0.5376,0.5351,0.5349,0.5341,0.5343,0.5381,0.5374,0.535,0.5347,0.535,0.5373,0.5384,0.5387,0.5447,0.539,0.5393,0.5395,0.5396,0.5563,0.5566,0,0,0,0,0,0,0.5311,0.5315,0.5375,0.5377,0.5325,0.5344,0.5346,0.5362,0.5373,0.5373,0.5352,0.5348,0.538,0.5384,0.5388,0.5466,0.5394,0.5397,0.5398,0.5561,0.5564,0.5567,0,0,0,0,0,0,0.5309,0.5316,0.5374,0.5345,0.5352,0.5348,0.5366,0.5364,0.5375,0.5375,0.5374,0.5364,0.5378,0.5384,0.5431,0.5467,0.5398,0.5401,0.5558,0.5562,0.5565,0.5621,0,0,0,0,0,0,0.5307,0.5316,0.5338,0.5346,0.5354,0.5415,0.5368,0.5366,0.538,0.5375,0.5386,0.5386,0.5377,0.5427,0.5434,0.547,0.5404,0.5555,0.556,0.5564,0.5616,0.5626,0.5635,0,0,0,0,0,0.5304,0.5352,0.534,0.5347,0.5382,0.5417,0.5421,0.5409,0.5383,0.5407,0.5408,0.5386,0.5462,0.5432,0.544,0.5477,0.5552,0.5558,0.5564,0.5612,0.5624,0.5635,0,0,0,0,0,0,0.5349,0.5353,0.5339,0.5391,0.5404,0.541,0.5439,0.5422,0.5443,0.5438,0.5423,0.5426,0.5477,0.5482,0.5449,0.5542,0.5503,0.551,0.5537,0.5548,0.5558,0.5556,0.5406,0,0,0,0,0,0.5365,0.5392,0.5395,0.5441,0.5448,0.5443,0.5458,0.5448,0.5461,0.5466,0.547,0.5485,0.5512,0.553,0.5555,0.5617,0.562,0.5647,0.5656,0.5664,0.5671,0.5708,0.572,0.5585,0.5585,0.5585,0,0,0.5398,0.5404,0.5422,0.545,0.5459,0.549,0.5448,0.5481,0.5504,0.5471,0.5517,0.5521,0.5536,0.5592,0.5617,0.5597,0.5709,0.5671,0.5677,0.568,0.5715,0.5728,0.5739,0.5589,0.5588,0.5588,0,0,0.5475,0.5481,0.5521,0.5532,0.5546,0.5543,0.5553,0.5562,0.5564,0.5609,0.5587,0.5615,0.5662,0.5675,0.5688,0.5774,0.5756,0.5783,0.5833,0.5869,0.5879,0.5889,0.5922,0.5934,0.579,0.579,0.579,0,0.5514,0.5558,0.5544,0.558,0.5595,0.5568,0.561,0.5621,0.5644,0.5655,0.5633,0.5694,0.5702,0.5762,0.5784,0.5794,0.5808,0.5781,0.5879,0.5888,0.5897,0.5928,0.5941,0.5793,0.5793,0.5793,0.5792,0,0.5608,0.5639,0.567,0.5693,0.5711,0.575,0.5745,0.5765,0.5755,0.5755,0.5805,0.5814,0.5842,0.5856,0.5845,0.5916,0.5904,0.5881,0.5842,0.5913,0.5943,0.5955,0.5798,0.5797,0.5796,0.5795,0,0,0.571,0.5728,0.574,0.5752,0.5768,0.5793,0.5832,0.586,0.588,0.5897,0.5931,0.5974,0.5954,0.5968,0.596,0.5991,0.6063,0.5964,0.5965,0.5984,0.6146,0.6164,0.6178,0.6051,0.6053,0.6055,0.6145,0,0.5788,0.5856,0.5847,0.5913,0.5943,0.592,0.5955,0.597,0.5973,0.6001,0.6003,0.6035,0.6004,0.6014,0.6044,0.6048,0.6096,0.6041,0.6086,0.6087,0.6083,0.6193,0.6212,0.6296,0.6157,0.6159,0.616,0,0.5887,0.591,0.5979,0.5994,0.6006,0.6038,0.6065,0.6091,0.6109,0.6109,0.6128,0.6115,0.6158,0.6118,0.6179,0.6142,0.616,0.6166,0.6169,0.6173,0.6128,0.6203,0.6322,0.6336,0.6178,0.6176,0.6175,0,0.5959,0.6006,0.6054,0.6065,0.6083,0.6106,0.6115,0.6131,0.615,0.6174,0.6187,0.6216,0.6232,0.6256,0.6253,0.6223,0.6316,0.6275,0.6319,0.6319,0.6339,0.6338,0.6465,0.6349,0.6348,0.6348,0.6348,0,0.6047,0.6091,0.6087,0.6117,0.6166,0.6157,0.6207,0.6213,0.6229,0.6261,0.6243,0.6274,0.6267,0.6299,0.6297,0.6349,0.6356,0.6359,0.6358,0.6361,0.6361,0.6373,0.6368,0.6351,0.6351,0.635,0.6349,0,0.6134,0.6133,0.6185,0.6199,0.6204,0.624,0.6253,0.6283,0.6285,0.6327,0.6336,0.634,0.6377,0.6376,0.6418,0.6417,0.6482,0.6473,0.6476,0.6474,0.6519,0.6516,0.666,0.668,0.6549,0.655,0.6551,0,0.6191,0.6224,0.6243,0.6264,0.6274,0.6307,0.6327,0.6321,0.6343,0.6369,0.6396,0.6432,0.646,0.6521,0.6528,0.6562,0.6555,0.6603,0.656,0.6563,0.6558,0.6557,0.6562,0.6612,0.6613,0.6614,0.6615,0,0.6293,0.6292,0.632,0.6351,0.6375,0.6398,0.642,0.6438,0.6435,0.6461,0.6499,0.6521,0.6565,0.6602,0.6635,0.6646,0.6632,0.6629,0.6642,0.6646,0.6647,0.6649,0.6501,0.6626,0.6625,0.6624,0.6623,0.6623,0.6368,0.6398,0.6417,0.6451,0.6467,0.6489,0.6518,0.6526,0.6557,0.6592,0.6587,0.6631,0.6653,0.6695,0.671,0.6745,0.6729,0.6746,0.675,0.6755,0.6761,0.6641,0.6751,0.6751,0.6751,0.675,0.675,0,0.6471,0.6483,0.6514,0.6546,0.6574,0.6558,0.6582,0.6607,0.6645,0.6666,0.6695,0.6742,0.6778,0.679,0.6827,0.6853,0.6848,0.6863,0.6862,0.6865,0.6773,0.676,0.6867,0.6867,0.6867,0.6867,0.6867,0.6867,0.6528,0.6579,0.6581,0.6642,0.6654,0.6696,0.6712,0.6733,0.675,0.6803,0.6833,0.6841,0.686,0.6898,0.6932,0.6935,0.695,0.6969,0.6969,0.6883,0.6871,0.686,0.6848,0.6972,0.6972,0.7059,0.706,0.706]}]]